Location: Campbell River
(50.0170°N, 125.2500°W)
Time: 11:45:22
(UTC-07:00)

Daily predictions for brighter satellites

Satellite Brightness Start Highest point End
(mag) Time Altitude Azimuth Time Altitude Azimuth Time Altitude Azimuth
Cosmos 2084 4.3 21:45:57 10° WNW 21:49:30 38° SW 21:53:09 10° SSE
Cosmos 1869 Rocket 3.6 21:45:31 10° S 21:49:46 59° E 21:54:06 10° NNE
ERS-1 Rocket 3.0 21:45:28 10° SSE 21:50:30 77° ENE 21:55:34 10° NNW
SL-08 RB Rocket 4.4 21:46:09 10° SE 21:50:34 42° ENE 21:54:58 10° N
Cosmos 1048 Rocket 4.1 21:48:45 10° NNW 21:54:08 78° ENE 21:59:24 10° SSE
Lacrosse 4 Rocket 1.7 21:52:54 10° NNW 21:57:26 73° NE 22:01:54 10° SE
ISS -3.1 21:55:42 10° SSW 21:58:39 32° SSE 22:01:35 10° E
Cosmos 1862 4.4 21:56:10 10° SSE 21:59:34 27° E 22:02:58 10° NNE
Cosmos 2227 Rocket 4.2 21:56:07 10° N 21:59:54 18° NE 22:03:39 10° ENE
Cosmos 1892 3.8 21:57:22 10° SSW 22:01:06 48° WNW 22:04:50 10° N
Cosmos 2221 Rocket 3.8 21:57:07 10° NNW 22:01:33 78° W 22:06:01 10° S
Cosmos 2219 4.2 22:01:24 10° NNW 22:06:43 36° NE 22:12:00 10° ESE
deb Kosmos-1763 4.2 22:03:22 10° NNW 22:07:10 82° WSW 22:10:56 10° SSE
NOSS 3-2 (A) 4.0 22:01:49 10° SW 22:07:57 69° NW 22:14:50 10° NE
MetOp-A 4.2 22:04:57 10° SSE 22:10:19 86° WSW 22:15:43 10° NNW
CZ-4C R/B 4.5 22:06:17 10° NW 22:11:33 26° N 22:17:27 10° ENE
Cosmos 1437 4.4 22:11:16 10° NNE 22:13:49 21° ENE 22:16:04 12° ESE
Cosmos 1340 2.6 22:10:34 10° N 22:14:23 83° E 22:18:11 10° SSE
Cosmos 1674 Rocket 4.3 22:10:58 10° N 22:15:02 37° ENE 22:18:42 12° SE
Terra 2.9 22:12:01 10° SE 22:16:09 31° ENE 22:20:21 10° N
USA 215 3.5 22:09:57 10° SE 22:16:26 61° SW 22:22:58 10° WNW
Cosmos 2251 Rocket 4.3 22:11:52 10° NNW 22:16:49 40° ENE 22:21:25 11° SE
Cosmos 1943 Rocket 2.3 22:13:03 10° S 22:18:29 54° ESE 22:23:54 10° NE
Gbstr 26 Del rocket 3.3 22:16:40 10° W 22:21:35 71° N 22:25:40 10° E
SPOT 1/Viking Rocket 3.6 22:22:10 10° SSE 22:27:16 73° ENE 22:32:29 10° NNW
Cosmos 372 Rocket 3.9 22:23:12 10° S 22:28:16 65° ESE 22:33:21 10° NNE
NOSS 3-2 (C) 4.1 22:22:38 10° SW 22:28:47 66° NW 22:35:41 10° NE
Cosmos 2263 4.2 22:23:05 10° SSW 22:28:50 78° ESE 22:34:35 10° NNE
Cosmos 1606 3.6 22:25:41 10° NNW 22:29:20 48° W 22:32:59 10° S
Cosmos 1269 Rocket 4.4 22:25:13 10° NNW 22:30:27 61° WSW 22:35:38 10° S
SPOT 5 3.2 22:27:00 10° SSE 22:32:23 82° WSW 22:37:41 10° NNW
H-2A R/B 3.3 22:31:06 13° ESE 22:34:02 26° ENE 22:37:31 10° N
YAOGAN 11 4.3 22:31:50 10° S 22:36:23 77° WSW 22:40:55 10° NNW
Okean 3 4.2 22:33:35 10° N 22:37:32 39° ENE 22:40:24 17° SE
Molniya-1 2.1 22:36:03 10° SW 22:37:36 70° NW 22:39:13 10° NE
Lacrosse 5 rocket 0.9 22:34:12 10° SW 22:37:46 70° SE 22:41:29 10° ENE
Cosmos 1125 Rocket 3.5 22:34:14 10° SSW 22:39:29 88° WNW 22:44:45 10° NNE
COSMOS 2455 3.2 22:33:47 10° SW 22:39:47 71° NW 22:45:50 10° NNE
GEOS 3 Rocket 3.7 22:35:54 14° SE 22:40:22 79° NE 22:45:40 10° NW
Cosmos 2369 Rocket 2.6 22:35:03 10° SW 22:40:42 68° WNW 22:46:25 10° NNE
Cosmos 1092 Rocket 4.4 22:36:34 12° SSE 22:41:56 45° E 22:47:44 10° NNE
CENTAUR R/B 2.5 22:36:21 10° SSW 22:42:29 73° SE 22:49:33 10° NE
Nadezhda 4 Rocket 4.0 22:36:31 10° S 22:42:37 63° E 22:48:42 10° NNE
IGS 5A 3.9 22:42:12 17° SE 22:45:08 47° ENE 22:49:08 10° N
Cosmos 2297 Rocket 3.6 22:50:14 10° NNW 22:55:07 28° NE 22:59:59 10° ESE
Cosmos 2344 3.7 22:47:54 10° SSW 22:55:24 62° ESE 23:04:03 10° NE
Cosmos 1908 Rocket 4.2 22:52:48 19° SSE 22:55:32 39° E 22:59:41 10° NNE
ATLAS 5 CENTAUR R/B 3.3 22:53:38 10° NW 22:59:08 40° WSW 23:04:14 14° S
Cosmos 1867 3.6 22:54:04 10° NW 22:59:32 78° SW 23:03:23 20° SSE
Meteor 1-27 Rocket 4.4 22:57:00 10° NNW 23:02:36 53° W 23:08:05 10° S
Cosmos 494 Rocket 4.0 23:00:32 10° NNW 23:05:48 78° WSW 23:09:27 20° SSE
H-2A R/B 2.7 23:03:26 12° S 23:08:23 54° W 23:13:35 10° NNW
PSLV R/B 4.1 23:08:27 25° ESE 23:09:12 29° ENE 23:11:41 10° N
deb Chang Zheng 4 4.5 23:08:56 10° NNE 23:12:57 32° E 23:14:41 24° SE
Cosmos 1656 Rocket 3.6 23:11:23 10° SSW 23:16:48 70° ESE 23:22:21 10° NNE
Cosmos 1825 4.4 23:16:08 10° SW 23:19:17 24° WNW 23:22:26 10° NNW
CZ-2C R/B 4.4 23:16:45 15° ESE 23:19:49 26° ENE 23:23:51 10° N
Cosmos 1346 3.2 23:17:20 10° NNW 23:20:01 56° W 23:20:53 35° SSW
Cosmos 1733 Rocket 3.6 23:16:10 10° SSW 23:20:25 56° WNW 23:24:43 10° N
Cosmos 1782 Rocket 4.0 23:20:55 27° SSE 23:22:53 43° E 23:27:03 10° NNE
CZ-4B R/B 4.2 23:18:34 10° NNE 23:23:06 33° E 23:25:02 25° SE
APEX 4.1 23:21:43 10° NNW 23:26:30 49° NE 23:28:32 25° ESE
BREEZE M DEB (TANK) 3.1 23:22:20 10° WSW 23:29:54 59° SSE 23:32:28 13° E
Sich 1 Rocket 3.5 23:27:16 23° S 23:29:58 78° E 23:34:24 10° NNE
DNEPR-1 R/B 4.4 23:26:02 10° WSW 23:30:47 53° NW 23:35:03 10° NE
ISS -3.8 23:31:41 10° W 23:34:57 79° NNW 23:38:13 10° ENE
Meteor 1-25 Rocket 4.5 23:31:48 24° SSE 23:35:13 57° E 23:40:57 10° NNE
Lacrosse 4 Rocket 3.7 23:32:43 10° WNW 23:35:38 17° WSW 23:38:29 10° SSW
SOZ 4.2 23:37:46 10° WNW 23:40:07 70° NNE 23:40:25 56° ENE
Cosmos 1975 Rocket 3.0 23:35:47 10° N 23:40:17 86° E 23:42:22 31° SSE
Cosmos 1812 2.8 23:38:08 10° NNW 23:42:02 75° W 23:43:38 34° S
Cosmos 1633 3.5 23:41:48 30° ESE 23:42:16 31° E 23:45:28 10° NNE
CZ-2C R/B 3.8 23:40:15 10° NE 23:44:30 25° E 23:46:00 22° ESE
Cosmos 2227 Rocket 2.4 23:39:28 10° NNW 23:45:07 64° ENE 23:48:20 26° SE
Cosmos 1655 Rocket 4.1 23:43:07 25° SSE 23:46:49 65° E 23:53:00 10° NNE
ALOS 2 3.9 23:47:34 21° ESE 23:49:32 30° ENE 23:53:21 10° N
ATLAS CENTAUR R/B 1.3 23:48:33 39° S 23:49:37 51° SE 23:53:21 10° NE
Cosmos 2219 3.8 23:45:32 10° NW 23:51:05 50° WSW 23:54:13 25° S
Meteor 1-14 Rocket 4.3 23:47:24 20° SSW 23:51:37 88° WNW 23:57:27 10° NNE
Terra 2.8 23:50:55 19° SSW 23:53:49 39° W 23:58:18 10° NNW
